This demonstration page uses our WeatherBlox Daily Observations layout. Learn more.

Left ArrowRight Arrow

31.31129, -92.44514

Hourly Observations for December 31, 2020

Temp ( °F °C ) Dew Point ( °F °C ) Humidity (%) Winds ( mph kmh ) Pressure ( in mb ) Visibility ( mi km ) Precip ( " mm )
12:34 am 00:34 Cloudy 65 18.3 62 16.7 90 90 SE 8 13 29.87 1011 10 16 0.00 0.00
12:53 am 00:53 Cloudy 65 18.3 63 17.2 93 93 SE 10 17 29.87 1011 9 14 0.00 0.00
1:12 am 01:12 Cloudy 65 18.3 63 17.2 93 93 SE 9 15 29.85 1011 9 14 0.00 0.00
1:53 am 01:53 Cloudy 65 18.3 63 17.2 93 93 SSE 9 15 29.88 1012 8 13 0.00 0.00
2:08 am 02:08 Cloudy 65 18.3 63 17.2 93 93 SSE 8 13 29.87 1011 8 13 0.00 0.00
2:26 am 02:26 Cloudy 65 18.3 63 17.2 93 93 SSE 9 15 29.86 1011 8 13 0.00 0.00
2:53 am 02:53 Cloudy 65 18.3 63 17.2 93 93 SE 9 15 29.86 1011 8 13 0.00 0.00
3:30 am 03:30 Cloudy with Light Rain 65 18.3 63 17.2 93 93 ESE 8 13 29.85 1011 6 10 0.00 0.00
3:53 am 03:53 Cloudy with Light Rain 64 17.8 63 17.2 96 96 ESE 12 19 29.85 1011 6 10 0.00 0.00
4:25 am 04:25 Cloudy with Light Rain 64 17.8 63 17.2 96 96 SE 10 17 29.84 1010 5 8 0.00 0.00
4:53 am 04:53 Cloudy with Light Rain 64 17.8 64 17.8 100 100 ESE 8 13 29.85 1011 5 8 0.00 0.00
5:02 am 05:02 Cloudy with Light Rain 64 17.8 64 17.8 100 100 ESE 6 9 29.84 1010 6 10 0.00 0.00
5:18 am 05:18 Cloudy with Mist and Fog 64 17.8 64 17.8 100 100 ESE 5 7 29.84 1010 6 10 0.01 0.25
5:53 am 05:53 Cloudy 64 17.8 64 17.8 100 100 ENE 5 7 29.85 1011 7 11 0.01 0.25
6:13 am 06:13 Cloudy with Light Rain 53 11.7 51 10.6 93 93 N 16 26 29.85 1011 5 8 0.01 0.25
6:53 am 06:53 Cloudy with Light Rain 50 10 49 9.4 96 96 NNE 13 20 29.87 1012 4 6 0.01 0.25
7:53 am 07:53 Cloudy 49 9.4 48 8.9 97 97 NNE 7 11 29.89 1012 10 16 0.02 0.51
8:53 am 08:53 Cloudy 49 9.4 48 8.9 97 97 NE 7 11 29.90 1012 10 16 0.00 0.00
9:53 am 09:53 Cloudy 50 10 49 9.4 96 96 ENE 7 11 29.89 1012 10 16 0.00 0.00
10:01 am 10:01 Cloudy 50 10 48 8.9 93 93 ENE 10 17 29.88 1012 10 16 0.00 0.00
10:53 am 10:53 Cloudy 51 10.6 50 10 96 96 ENE 7 11 29.86 1011 10 16 0.00 0.00
11:35 am 11:35 Cloudy 53 11.7 51 10.6 93 93 NE 7 11 29.82 1010 10 16 0.00 0.00
11:53 am 11:53 Cloudy 53 11.7 51 10.6 93 93 NE 8 13 29.82 1010 10 16 0.00 0.00
12:37 pm 12:37 Cloudy 53 11.7 52 11.1 96 96 NE 8 13 29.76 1008 10 16 0.00 0.00
12:53 pm 12:53 Cloudy 53 11.7 52 11.1 96 96 NE 12 19 29.76 1008 10 16 0.00 0.00
1:53 pm 13:53 Cloudy with Rain 53 11.7 52 11.1 96 96 ENE 10 17 29.73 1007 3 4 0.07 1.78
2:01 pm 14:01 Cloudy with Light Rain 53 11.7 52 11.1 96 96 NE 14 22 29.71 1006 2 3 0.03 0.76
2:04 pm 14:04 Cloudy with Light Rain 53 11.7 52 11.1 96 96 NE 14 22 29.71 1006 3 5 0.03 0.76
2:43 pm 14:43 Cloudy with Heavy Rain 53 11.7 52 11.1 96 96 VRB 5 7 29.70 1006 3 4 0.13 3.30
2:53 pm 14:53 Cloudy with Light Rain 54 12.2 53 11.7 97 97 VRB 5 7 29.71 1006 3 4 0.14 3.56
3:00 pm 15:00 Cloudy with Light Rain 54 12.2 53 11.7 97 97 ENE 5 7 29.69 1005 6 10 0.00 0.00
3:19 pm 15:19 Cloudy 54 12.2 54 12.2 100 100 Calm 29.69 1005 10 16 0.00 0.00
3:29 pm 15:29 Cloudy with Heavy Rain 55 12.8 54 12.2 96 96 NE 8 13 29.68 1005 3 5 0.04 1.02
3:53 pm 15:53 Cloudy with Light Rain 56 13.3 54 12.2 93 93 ENE 8 13 29.70 1006 10 16 0.04 1.02
4:00 pm 16:00 Cloudy 55 12.8 54 12.2 96 96 ENE 13 20 29.68 1005 10 16 0.00 0.00
4:10 pm 16:10 Cloudy 54 12.2 53 11.7 97 97 ENE 13 20 29.67 1005 10 16 0.00 0.00
4:53 pm 16:53 Cloudy 54 12.2 53 11.7 97 97 ENE 8 13 29.68 1005 10 16 0.00 0.00
5:00 pm 17:00 Cloudy with Light Rain 54 12.2 53 11.7 97 97 ENE 8 13 29.67 1005 9 14 0.00 0.00
5:10 pm 17:10 Cloudy with Light Rain 54 12.2 53 11.7 97 97 ENE 5 7 29.67 1005 10 16 0.00 0.00
5:24 pm 17:24 Cloudy 54 12.2 53 11.7 97 97 SSE 3 6 29.67 1005 10 16 0.00 0.00
5:44 pm 17:44 Cloudy 55 12.8 53 11.7 93 93 ENE 12 19 29.65 1004 10 16 0.00 0.00
5:53 pm 17:53 Cloudy 55 12.8 53 11.7 93 93 ENE 9 15 29.66 1004 10 16 0.00 0.00
6:53 pm 18:53 Cloudy with Light Rain 56 13.3 55 12.8 97 97 VRB 6 9 29.65 1004 10 16 0.00 0.00
7:32 pm 19:32 Cloudy with Heavy Rain 58 14.4 58 14.4 100 100 ESE 6 9 29.64 1004 3 4 0.07 1.78
7:41 pm 19:41 Cloudy with Light Rain 58 14.4 58 14.4 100 100 SE 6 9 29.65 1004 6 10 0.07 1.78
7:51 pm 19:51 Cloudy 57 14 57 14 100 100 E 9 15 29.65 1004 9 14 0.07 1.78
7:53 pm 19:53 Cloudy 58 14.4 57 13.9 97 97 E 6 9 29.66 1004 9 14 0.07 1.78
8:06 pm 20:06 Cloudy 59 15 58 14.4 96 96 ESE 7 11 29.65 1004 9 14 0.00 0.00
8:42 pm 20:42 Cloudy 60 15.6 59 15 96 96 S 5 7 29.67 1005 8 13 0.00 0.00
8:53 pm 20:53 Cloudy 61 16.1 60 15.6 97 97 SSW 10 17 29.68 1005 10 16 0.00 0.00
9:53 pm 21:53 Cloudy 61 16.1 52 11.1 72 72 SSW 12 19 29.72 1006 10 16 0.00 0.00
10:53 pm 22:53 Cloudy with Light Rain 57 13.9 52 11.1 83 83 SSE 9 15 29.71 1006 10 16 0.01 0.25
11:33 pm 23:33 Mostly Cloudy 56 13.3 53 11.7 90 90 S 15 24 29.71 1006 10 16 0.01 0.25
11:53 pm 23:53 Mostly Cloudy 55 12.8 53 11.7 93 93 S 14 22 29.74 1007 10 16 0.01 0.25

Powered by AerisWeather